Previsão horária em Bolshie Kokuzy

Hoje, 1 Março, Segunda-feira

Tempo Temperatura Precipitação Vento Pressão Humidade
00:00 -20°C° 0 mm 2 m/s 756 mmHg 98%
01:00 -21°C° 0 mm 2 m/s 756 mmHg 98%
02:00 -21°C° 0 mm 2 m/s 757 mmHg 98%
03:00 -21°C° 0 mm 2 m/s 757 mmHg 99%
04:00 -23°C° 0 mm 2 m/s 757 mmHg 99%
05:00 -23°C° 0 mm 2 m/s 758 mmHg 99%
06:00 -23°C° 0 mm 2 m/s 758 mmHg 99%
07:00 -23°C° 0 mm 2 m/s 758 mmHg 98%
08:00 -21°C° 0 mm 2 m/s 759 mmHg 97%
09:00 -21°C° 0 mm 2 m/s 759 mmHg 96%
10:00 -19°C° 0 mm 2 m/s 759 mmHg 94%
11:00 -18°C° 0 mm 2 m/s 759 mmHg 93%
12:00 -17°C° 0 mm 2 m/s 759 mmHg 91%
13:00 -16°C° 0 mm 2 m/s 759 mmHg 92%
14:00 -15°C° 0 mm 2 m/s 759 mmHg 92%
15:00 -14°C° 0 mm 2 m/s 759 mmHg 92%
16:00 -15°C° 0 mm 2 m/s 758 mmHg 93%
17:00 -15°C° 0 mm 2 m/s 758 mmHg 95%
18:00 -16°C° 0 mm 2 m/s 757 mmHg 96%
19:00 -17°C° 0 mm 3 m/s 757 mmHg 96%
20:00 -16°C° 0 mm 3 m/s 756 mmHg 96%
21:00 -16°C° 0 mm 3 m/s 756 mmHg 96%
22:00 -16°C° 0 mm 4 m/s 755 mmHg 95%
23:00 -15°C° 0 mm 5 m/s 754 mmHg 94%

Amanhã, 2 Março, Terça-feira

Tempo Temperatura Precipitação Vento Pressão Humidade
00:00 -14°C° 0 mm 5 m/s 753 mmHg 94%
01:00 -14°C° 0.4 mm 6 m/s 752 mmHg 94%
02:00 -12°C° 0.4 mm 6 m/s 751 mmHg 94%
03:00 -11°C° 0.4 mm 6 m/s 750 mmHg 94%
04:00 -10°C° 0.4 mm 6 m/s 749 mmHg 94%
05:00 -9°C° 0.4 mm 7 m/s 748 mmHg 94%
06:00 -8°C° 0.4 mm 7 m/s 747 mmHg 95%
07:00 -7°C° 0.3 mm 7 m/s 746 mmHg 94%
08:00 -6°C° 0.3 mm 7 m/s 746 mmHg 94%
09:00 -3°C° 0.3 mm 7 m/s 745 mmHg 94%
10:00 -3°C° 0.2 mm 7 m/s 745 mmHg 95%
11:00 -3°C° 0.2 mm 6 m/s 744 mmHg 97%
12:00 -2°C° 0.2 mm 6 m/s 743 mmHg 98%
13:00 -2°C° 0.2 mm 6 m/s 743 mmHg 98%
14:00 -2°C° 0.2 mm 6 m/s 743 mmHg 97%
15:00 -2°C° 0.2 mm 6 m/s 743 mmHg 97%
16:00 -2°C° 0.1 mm 5 m/s 743 mmHg 95%
17:00 -2°C° 0.1 mm 5 m/s 743 mmHg 92%
18:00 -4°C° 0.1 mm 5 m/s 743 mmHg 90%
19:00 -5°C° 0 mm 5 m/s 743 mmHg 90%
20:00 -4°C° 0 mm 4 m/s 743 mmHg 91%
21:00 -5°C° 0 mm 4 m/s 744 mmHg 91%
22:00 -7°C° 0 mm 4 m/s 744 mmHg 92%
23:00 -8°C° 0 mm 4 m/s 744 mmHg 93%

Depois de amanhã, 3 Março, Quarta-feira

Tempo Temperatura Precipitação Vento Pressão Humidade
00:00 -9°C° 0 mm 4 m/s 744 mmHg 94%
01:00 -9°C° 0 mm 4 m/s 744 mmHg 94%
02:00 -9°C° 0 mm 4 m/s 744 mmHg 95%
03:00 -9°C° 0 mm 4 m/s 744 mmHg 95%
04:00 -10°C° 0 mm 4 m/s 744 mmHg 96%
05:00 -10°C° 0 mm 4 m/s 744 mmHg 96%
06:00 -10°C° 0 mm 4 m/s 744 mmHg 96%
07:00 -10°C° 0 mm 4 m/s 745 mmHg 95%
08:00 -9°C° 0 mm 4 m/s 745 mmHg 94%
09:00 -8°C° 0 mm 4 m/s 745 mmHg 94%
10:00 -8°C° 0 mm 5 m/s 746 mmHg 92%
11:00 -8°C° 0 mm 5 m/s 746 mmHg 91%
12:00 -8°C° 0 mm 5 m/s 746 mmHg 89%
13:00 -8°C° 0 mm 6 m/s 746 mmHg 89%
14:00 -8°C° 0 mm 6 m/s 747 mmHg 89%
15:00 -8°C° 0 mm 6 m/s 747 mmHg 88%
16:00 -9°C° 0 mm 6 m/s 747 mmHg 89%
17:00 -10°C° 0 mm 5 m/s 747 mmHg 90%
18:00 -10°C° 0 mm 5 m/s 747 mmHg 90%
19:00 -10°C° 0 mm 5 m/s 748 mmHg 91%
20:00 -11°C° 0 mm 5 m/s 748 mmHg 91%
21:00 -11°C° 0 mm 5 m/s 749 mmHg 91%
22:00 -11°C° 0 mm 4 m/s 749 mmHg 92%
23:00 -12°C° 0 mm 4 m/s 748 mmHg 93%

4 Março, Quinta-feira

Tempo Temperatura Precipitação Vento Pressão Humidade
00:00 -13°C° 0 mm 3 m/s 748 mmHg 94%
01:00 -14°C° 0.1 mm 4 m/s 748 mmHg 94%
02:00 -12°C° 0.1 mm 4 m/s 748 mmHg 94%
03:00 -11°C° 0.1 mm 4 m/s 748 mmHg 94%
04:00 -10°C° 0.1 mm 4 m/s 747 mmHg 94%
05:00 -10°C° 0.1 mm 4 m/s 747 mmHg 94%
06:00 -10°C° 0.1 mm 4 m/s 747 mmHg 95%
07:00 -10°C° 0 mm 5 m/s 747 mmHg 94%
08:00 -8°C° 0 mm 5 m/s 746 mmHg 93%
09:00 -8°C° 0 mm 5 m/s 746 mmHg 92%
10:00 -8°C° 0 mm 6 m/s 745 mmHg 91%
11:00 -6°C° 0 mm 6 m/s 745 mmHg 90%
12:00 -5°C° 0 mm 6 m/s 744 mmHg 90%
13:00 -6°C° 0.2 mm 7 m/s 743 mmHg 91%
14:00 -6°C° 0.2 mm 8 m/s 743 mmHg 93%
15:00 -5°C° 0.2 mm 8 m/s 742 mmHg 95%
16:00 -5°C° 0.3 mm 8 m/s 741 mmHg 95%
17:00 -5°C° 0.3 mm 8 m/s 741 mmHg 95%
18:00 -4°C° 0.3 mm 8 m/s 740 mmHg 95%
19:00 -4°C° 0.3 mm 8 m/s 740 mmHg 95%
20:00 -4°C° 0.3 mm 8 m/s 740 mmHg 96%
21:00 -3°C° 0.3 mm 7 m/s 739 mmHg 96%
22:00 -3°C° 0.3 mm 7 m/s 739 mmHg 95%
23:00 -4°C° 0.3 mm 8 m/s 738 mmHg 95%

5 Março, Sexta-feira

Tempo Temperatura Precipitação Vento Pressão Humidade
00:00 -4°C° 0.3 mm 8 m/s 738 mmHg 95%
01:00 -5°C° 0.4 mm 8 m/s 738 mmHg 94%
02:00 -5°C° 0.4 mm 8 m/s 738 mmHg 93%
03:00 -6°C° 0.4 mm 9 m/s 739 mmHg 92%
04:00 -8°C° 0 mm 8 m/s 740 mmHg 90%
05:00 -11°C° 0 mm 7 m/s 741 mmHg 88%
06:00 -13°C° 0 mm 7 m/s 742 mmHg 87%
07:00 -13°C° 0 mm 7 m/s 743 mmHg 88%
08:00 -14°C° 0 mm 7 m/s 745 mmHg 89%
09:00 -14°C° 0 mm 6 m/s 746 mmHg 90%
10:00 -12°C° 0 mm 6 m/s 747 mmHg 89%
11:00 -12°C° 0 mm 5 m/s 748 mmHg 89%
12:00 -11°C° 0 mm 5 m/s 749 mmHg 89%
13:00 -10°C° 0 mm 4 m/s 749 mmHg 89%
14:00 -10°C° 0 mm 4 m/s 750 mmHg 88%
15:00 -9°C° 0 mm 4 m/s 750 mmHg 88%
16:00 -10°C° 0 mm 3 m/s 751 mmHg 89%
17:00 -12°C° 0 mm 3 m/s 751 mmHg 90%
18:00 -13°C° 0 mm 3 m/s 752 mmHg 91%
19:00 -14°C° 0 mm 3 m/s 752 mmHg 92%
20:00 -15°C° 0 mm 3 m/s 753 mmHg 93%
21:00 -14°C° 0 mm 2 m/s 753 mmHg 94%
22:00 -15°C° 0 mm 2 m/s 754 mmHg 94%
23:00 -15°C° 0 mm 2 m/s 754 mmHg 95%

6 Março, Sábado

Tempo Temperatura Precipitação Vento Pressão Humidade
00:00 -16°C° 0 mm 2 m/s 754 mmHg 95%
01:00 -16°C° 0 mm 2 m/s 755 mmHg 96%
02:00 -16°C° 0 mm 2 m/s 755 mmHg 96%
03:00 -15°C° 0 mm 1 m/s 755 mmHg 97%
04:00 -15°C° 0 mm 1 m/s 755 mmHg 97%
05:00 -15°C° 0 mm 1 m/s 755 mmHg 97%
06:00 -15°C° 0 mm 0 m/s 755 mmHg 97%
07:00 -14°C° 0 mm 0 m/s 755 mmHg 96%
08:00 -13°C° 0 mm 0 m/s 756 mmHg 95%
09:00 -12°C° 0 mm 0 m/s 756 mmHg 93%
10:00 -11°C° 0 mm 1 m/s 755 mmHg 92%
11:00 -10°C° 0 mm 1 m/s 755 mmHg 91%
12:00 -10°C° 0 mm 2 m/s 755 mmHg 90%
13:00 -10°C° 0 mm 2 m/s 754 mmHg 91%
14:00 -12°C° 0 mm 3 m/s 754 mmHg 92%
15:00 -12°C° 0 mm 3 m/s 753 mmHg 93%
16:00 -12°C° 0.1 mm 3 m/s 752 mmHg 93%
17:00 -12°C° 0.1 mm 4 m/s 752 mmHg 94%
18:00 -14°C° 0.1 mm 4 m/s 752 mmHg 94%
19:00 -14°C° 0.3 mm 4 m/s 751 mmHg 94%
20:00 -14°C° 0.3 mm 4 m/s 751 mmHg 94%
21:00 -14°C° 0.3 mm 4 m/s 751 mmHg 94%
22:00 -14°C° 0.1 mm 4 m/s 751 mmHg 94%
23:00 -15°C° 0.1 mm 4 m/s 750 mmHg 94%
Mostrar mais